Location: Ahausen
(50.4985°N, 8.2722°E)
Time: 03:25:02
(UTC+00:00)

Cosmos 1937 Rocket - Pass Details

Date: 18 September 2020
Orbit: 747 x 779 km, 74.0° (Epoch: 22 October)

Event Time Altitude Azimuth Distance (km) Brightness Sun altitude
Rises 18:54:27 0° 208° (SSW) 3,234 6.9 -13.5°
Reaches altitude 10° 18:56:50 10° 210° (SSW) 2,307 6.1 -13.8°
Maximum altitude 19:02:04 73° 295° (WNW) 802 3.7 -14.6°
Drops below altitude 10° 19:07:18 10° 21° (NNE) 2,301 6.0 -15.4°
Sets 19:09:41 0° 24° (NNE) 3,226 6.7 -15.7°
